Location: ?????
(31.8092°N, 35.2590°E)
Time: 19:56:24
(UTC+00:00)

X-37B - Visible Passes

Search period start: 26 September 2021 00:00
Search period end: 06 October 2021 00:00
Orbit: 381 x 393 km, 45.0° (Epoch: 29 August)

Date Brightness Start Highest point End Pass type
(mag) Time Alt. Az. Time Alt. Az. Time Alt. Az.
29 Sep 3.4 03:05:26 10° N 03:06:34 11° NNE 03:07:42 10° NE visible
01 Oct 3.2 02:44:36 10° NNW 02:46:42 16° NNE 02:48:48 10° ENE visible
02 Oct 3.5 01:47:40 11° N 01:48:03 11° NNE 01:49:10 10° NE visible
03 Oct 2.5 02:24:30 13° NNW 02:26:44 26° NNE 02:29:28 10° E visible
04 Oct 3.6 01:29:09 15° NE 01:29:09 15° NE 01:30:16 10° ENE visible
04 Oct 0.5 03:01:55 10° WNW 03:05:04 73° SW 03:08:13 10° SE visible
05 Oct 1.2 02:06:15 45° N 02:06:41 49° NNE 02:09:45 10° ESE visible
